Location: Rayville (historical)
(39.9992°N, 99.6815°W)
Time: 09:21:58
(UTC+00:00)

Cosmos 1805 Rocket - Pass Details

Date: 18 February 2020
Orbit: 607 x 629 km, 82.5° (Epoch: 09 April)

Event Time Altitude Azimuth Distance (km) Brightness Sun altitude
Rises 01:25:32 0° 195° (SSW) 2,886 7.3 -13.8°
Reaches altitude 10° 01:27:47 10° 199° (SSW) 1,981 6.4 -14.3°
Maximum altitude 01:32:07 59° 280° (W) 718 4.2 -15.1°
Drops below altitude 10° 01:36:27 10° 360° (N) 1,982 6.1 -15.9°
Sets 01:38:42 0° 4° (N) 2,888 6.9 -16.4°
